Weather reports worldwide

Advertisment
Guadalajara, Spain (8226): temperature & dewpoint: 29.06.2020 16:00:00 - 05.07.2020 16:00:00 (CEST)Guadalajara, Spain (8226): wind speed: 29.06.2020 16:00:00 - 05.07.2020 16:00:00 (CEST)Guadalajara, Spain (8226): wind direction: 29.06.2020 16:00:00 - 05.07.2020 16:00:00 (CEST)Guadalajara, Spain (8226): reduced air pressure: 29.06.2020 16:00:00 - 05.07.2020 16:00:00 (CEST)Guadalajara, Spain (8226): visibility: 29.06.2020 16:00:00 - 05.07.2020 16:00:00 (CEST)Guadalajara, Spain (8226): precipitation: 29.06.2020 16:00:00 - 05.07.2020 16:00:00 (CEST)
Date & Time tt [°C] td [°C] ff [km/h] ff [kn] dd ppp [hPa] vv [km] rr [mm]
05.07.2020 16:00:00 34,4 4,9 13 7 ENE 1013,4 20 0,0
05.07.2020 15:00:00 33,5 5,9 5 3 WNW 1014,2 2,7 0,0
05.07.2020 14:00:00 33,0 2,9 4 2 WNW 1015,2 20 -
05.07.2020 13:00:00 31,0 9,8 5 3 N 1016,2 7 0,0
05.07.2020 12:00:00 29,4 10,5 5 3 NW 1017,0 2,6 0,0
05.07.2020 11:00:00 27,0 7,9 5 3 N 1018,0 20 -
05.07.2020 10:00:00 23,5 7,1 5 3 N 1019,4 20 0,0
05.07.2020 09:00:00 20,7 5,5 5 3 NNE 1020,1 20 0,0
05.07.2020 08:00:00 17,6 4,5 8 4 ENE 1021,1 20 -
05.07.2020 07:00:00 15,9 3,7 2 1 E 1021,5 20 0,0
05.07.2020 06:00:00 17,0 4,0 4 2 NE 1021,0 20 0,0
05.07.2020 05:00:00 18,7 4,5 4 2 N 1020,3 20 -
05.07.2020 04:00:00 20,4 3,6 5 3 SSW 1019,9 20 0,0
05.07.2020 03:00:00 20,6 3,8 4 2 NE 1020,1 20 0,0
05.07.2020 02:00:00 21,9 3,5 8 4 NE 1020,0 20 -
05.07.2020 01:00:00 23,6 3,0 11 6 NNE 1019,3 20 0,0
05.07.2020 00:00:00 24,2 -0,2 9 5 ENE 1018,7 20 0,0
04.07.2020 23:00:00 26,0 -1,0 9 5 ENE 1017,6 20 -
04.07.2020 22:00:00 28,4 0,1 9 5 ENE 1016,1 20 0,0
04.07.2020 21:00:00 31,4 2,5 4 2 NE 1014,8 20 0,0
04.07.2020 20:00:00 33,3 2,2 5 3 NNE 1014,0 20 -
04.07.2020 19:00:00 33,7 1,5 4 2 WNW 1014,1 20 0,0
04.07.2020 18:00:00 33,7 1,5 5 3 E 1014,5 20 0,0
04.07.2020 17:00:00 33,6 1,4 4 2 WSW 1014,9 20 -
04.07.2020 16:00:00 32,6 1,6 5 3 S 1015,6 20 0,0
04.07.2020 15:00:00 31,2 4,1 5 3 NNW 1016,4 20 0,0
04.07.2020 14:00:00 30,9 5,3 4 2 WSW 1017,1 20 -
04.07.2020 13:00:00 28,9 3,7 5 3 NNW 1018,3 20 0,0
04.07.2020 12:00:00 27,9 6,6 5 3 WSW 1018,4 20 0,0
04.07.2020 11:00:00 25,4 8,0 8 4 N 1019,1 20 -
04.07.2020 10:00:00 22,3 8,8 5 3 N 1019,9 20 0,0
04.07.2020 09:00:00 19,2 8,2 5 3 N 1020,7 20 0,0
04.07.2020 08:00:00 18,0 7,7 4 2 NNE 1020,9 20 -
04.07.2020 07:00:00 17,1 7,7 2 1 N 1020,9 20 0,0
04.07.2020 06:00:00 17,7 7,4 4 2 N 1020,2 20 0,0
04.07.2020 05:00:00 18,1 6,0 9 5 NNE 1019,9 20 -
04.07.2020 04:00:00 19,0 4,7 13 7 ENE 1019,6 20 0,0
04.07.2020 03:00:00 19,5 4,0 15 8 ENE 1019,5 20 0,0
04.07.2020 02:00:00 20,4 4,4 13 7 ENE 1019,1 20 -
04.07.2020 01:00:00 21,9 3,5 9 5 NE 1018,0 20 0,0
04.07.2020 00:00:00 23,3 4,7 9 5 ENE 1017,4 20 0,0
03.07.2020 23:00:00 25,0 4,7 8 4 ENE 1016,2 20 -
03.07.2020 22:00:00 27,8 4,1 8 4 NE 1014,5 20 0,0
03.07.2020 21:00:00 29,4 4,1 4 2 N 1013,6 20 0,0
03.07.2020 20:00:00 31,3 4,1 5 3 S 1012,8 20 -
03.07.2020 19:00:00 31,1 3,2 9 5 E 1012,9 20 0,0
03.07.2020 18:00:00 31,4 3,4 8 4 SW 1013,0 20 0,0
03.07.2020 17:00:00 30,7 4,4 8 4 SW 1013,6 20 -
03.07.2020 16:00:00 29,1 3,8 5 3 NNE 1014,3 20 0,0
03.07.2020 15:00:00 28,6 7,2 9 5 WNW 1014,7 20 0,0
03.07.2020 14:00:00 27,9 8,7 8 4 W 1015,1 20 -
03.07.2020 13:00:00 26,4 9,7 8 4 N 1015,7 20 0,0
03.07.2020 12:00:00 24,5 10,4 9 5 NE 1016,6 20 0,0
03.07.2020 11:00:00 22,9 11,6 9 5 NE 1016,8 20 -
03.07.2020 10:00:00 20,4 11,3 13 7 NE 1017,7 20 0,0
03.07.2020 09:00:00 18,2 10,8 15 8 NE 1018,3 20 0,0
03.07.2020 08:00:00 16,1 10,2 13 7 NE 1018,4 20 -
03.07.2020 07:00:00 15,1 9,9 15 8 NE 1018,5 20 0,0
03.07.2020 06:00:00 15,5 9,8 16 9 ENE 1018,0 20 0,0
03.07.2020 05:00:00 16,2 10,3 15 8 NE 1017,3 20 -
03.07.2020 04:00:00 16,9 10,7 16 9 NE 1017,2 20 0,0
03.07.2020 03:00:00 17,8 11,4 13 7 NE 1016,6 20 0,0
03.07.2020 02:00:00 19,0 11,6 13 7 NE 1015,9 20 -
03.07.2020 01:00:00 21,5 12,6 11 6 NE 1014,8 20 0,0
03.07.2020 00:00:00 24,5 6,7 5 3 N 1013,1 20 0,0
02.07.2020 23:00:00 26,1 7,6 5 3 N 1012,1 20 -
02.07.2020 22:00:00 27,3 8,2 5 3 N 1010,9 20 0,0
02.07.2020 21:00:00 29,2 8,3 9 5 NNW 1009,6 20 0,0
02.07.2020 20:00:00 30,2 8,0 11 6 W 1008,7 20 -
02.07.2020 19:00:00 31,8 6,8 16 9 W 1008,2 20 0,0
02.07.2020 18:00:00 32,0 4,7 16 9 WSW 1008,4 20 0,0
02.07.2020 17:00:00 31,5 3,5 18 10 WSW 1008,9 20 -
02.07.2020 16:00:00 31,6 5,9 21 11 WSW 1009,3 20 0,0
02.07.2020 15:00:00 31,7 6,0 16 9 WSW 1009,5 20 0,0
02.07.2020 14:00:00 30,6 5,8 16 9 SW 1010,2 20 -
02.07.2020 13:00:00 29,6 7,5 18 10 WSW 1010,6 20 0,0
02.07.2020 12:00:00 28,3 9,1 18 10 W 1011,1 20 0,0
02.07.2020 11:00:00 27,3 9,2 8 4 SW 1011,3 20 -
02.07.2020 10:00:00 24,7 9,0 4 2 NNE 1012,0 20 0,0
02.07.2020 09:00:00 22,0 8,8 4 2 N 1012,5 20 0,0
02.07.2020 08:00:00 20,1 8,1 2 1 N 1012,5 20 -
02.07.2020 07:00:00 18,6 8,0 4 2 N 1012,9 20 0,0
02.07.2020 06:00:00 19,3 7,4 2 1 W 1012,2 20 0,0
02.07.2020 05:00:00 19,5 6,9 2 1 NE 1012,2 20 -
02.07.2020 04:00:00 20,1 6,4 2 1 E 1012,3 20 0,0
02.07.2020 03:00:00 21,2 6,7 0 0 N 1011,9 20 0,0
02.07.2020 02:00:00 22,3 6,9 2 1 SE 1011,6 20 -
02.07.2020 01:00:00 24,0 7,2 2 1 SE 1011,2 20 0,0
02.07.2020 00:00:00 25,3 6,5 4 2 S 1010,7 20 0,0
01.07.2020 23:00:00 28,2 6,9 4 2 ENE 1009,3 20 -
01.07.2020 22:00:00 30,4 6,3 5 3 N 1007,9 20 0,0
01.07.2020 21:00:00 31,6 5,9 11 6 NW 1007,0 20 0,0
01.07.2020 20:00:00 32,7 9,5 9 5 W 1006,2 20 -
01.07.2020 19:00:00 33,6 8,9 16 9 WSW 1006,0 20 0,0
01.07.2020 18:00:00 32,8 6,9 18 10 WSW 1006,5 20 0,0
01.07.2020 17:00:00 33,7 6,9 18 10 WSW 1006,6 20 -
01.07.2020 16:00:00 33,6 8,3 16 9 SW 1006,9 20 0,0
01.07.2020 15:00:00 32,8 8,3 18 10 W 1007,4 20 0,0
01.07.2020 14:00:00 31,9 5,4 21 11 SW 1007,8 20 -
01.07.2020 13:00:00 31,1 4,7 21 11 SW 1008,4 20 0,0
01.07.2020 12:00:00 30,0 10,0 16 9 WSW 1008,8 20 0,0
01.07.2020 11:00:00 27,9 10,6 13 7 WSW 1009,3 20 -
01.07.2020 10:00:00 25,9 11,3 11 6 WSW 1010,0 20 0,0
01.07.2020 09:00:00 24,6 11,5 8 4 SW 1009,9 20 0,0
01.07.2020 08:00:00 21,8 12,9 5 3 SSE 1010,2 20 -
01.07.2020 07:00:00 20,1 13,5 2 1 SSW 1010,1 20 0,0
01.07.2020 06:00:00 20,2 13,9 5 3 S 1009,7 20 0,0
01.07.2020 05:00:00 20,7 14,1 4 2 E 1009,4 20 -
01.07.2020 04:00:00 22,0 14,1 8 4 E 1009,2 20 0,0
01.07.2020 03:00:00 23,0 14,3 8 4 ENE 1008,6 20 0,0
01.07.2020 02:00:00 23,8 13,1 8 4 E 1008,3 20 -
01.07.2020 01:00:00 25,5 11,6 4 2 NNE 1008,2 20 0,0
01.07.2020 00:00:00 26,8 8,7 0 0 N 1007,6 20 0,0
30.06.2020 23:00:00 29,3 7,8 4 2 S 1006,7 18 -
30.06.2020 22:00:00 32,2 7,8 5 3 SW 1004,8 20 0,0
30.06.2020 21:00:00 34,2 6,5 5 3 WNW 1003,8 20 0,0
30.06.2020 20:00:00 35,8 6,9 11 6 W 1003,0 20 -
30.06.2020 19:00:00 36,2 6,4 21 11 WSW 1002,9 20 0,0
30.06.2020 18:00:00 36,7 6,8 13 7 W 1003,5 20 0,0
30.06.2020 17:00:00 36,2 6,4 22 12 SW 1004,3 20 -
30.06.2020 16:00:00 36,4 7,4 15 8 WSW 1004,8 20 0,0
30.06.2020 15:00:00 35,7 9,3 11 6 W 1005,7 20 0,0
30.06.2020 14:00:00 34,4 10,9 8 4 W 1006,6 20 -
30.06.2020 13:00:00 33,2 11,7 8 4 SW 1007,5 20 0,0
30.06.2020 12:00:00 31,0 11,4 5 3 W 1008,5 20 0,0
30.06.2020 11:00:00 28,5 12,4 5 3 NNE 1009,6 20 -
30.06.2020 10:00:00 26,8 12,1 5 3 ENE 1010,5 20 0,0
30.06.2020 09:00:00 23,6 14,9 5 3 N 1011,5 20 0,0
30.06.2020 08:00:00 21,4 13,6 4 2 NE 1011,9 20 -
30.06.2020 07:00:00 19,6 12,8 4 2 SSE 1012,2 20 0,0
30.06.2020 06:00:00 20,1 13,3 9 5 ENE 1011,6 20 0,0
30.06.2020 05:00:00 21,0 13,4 5 3 ENE 1011,2 20 -
30.06.2020 04:00:00 21,5 13,4 4 2 ENE 1011,0 20 0,0
30.06.2020 03:00:00 23,6 13,7 5 3 N 1010,8 20 0,0
30.06.2020 02:00:00 23,3 14,0 8 4 NE 1011,4 20 -
30.06.2020 01:00:00 23,6 6,8 5 3 ENE 1011,4 20 0,0
30.06.2020 00:00:00 25,5 2,8 4 2 NNE 1010,8 20 0,0
29.06.2020 23:00:00 27,1 2,9 5 3 S 1009,8 18 -
29.06.2020 22:00:00 29,9 3,8 8 4 S 1008,5 20 0,0
29.06.2020 21:00:00 33,2 2,1 9 5 WSW 1007,7 20 0,0
29.06.2020 20:00:00 34,9 4,4 15 8 SW 1007,2 20 -
29.06.2020 19:00:00 35,5 5,8 13 7 WSW 1007,2 20 0,0
29.06.2020 18:00:00 35,5 6,7 13 7 W 1007,8 20 0,0
29.06.2020 17:00:00 35,2 8,1 11 6 W 1008,4 20 -
29.06.2020 16:00:00 34,3 8,8 15 8 WSW 1009,3 20 0,0

tt = temperature
td = dewpoint
ff = wind speed
dd = wind direction
ppp = reduced air pressure
vv = visibility
rr = precipitation

Next stations